EW7665 Weather Reports


Display with metric or nautical units.
time (UTC)temp
F
wind
direction
speed
MPH
gust
MPH
rain 1hr
in
rain 24hr
in
rain mn
in
humidity
%
barometer
mb
20260508214607 68 211 1.0 2.0 0.00 0.01 0.01 63 1007.5
20260508213102 68 241 1.0 3.0 0.00 0.01 0.01 63 1007.5
20260508211558 66 73 2.0 3.0 0.00 0.01 0.01 63 1007.3
20260508210056 65 90 1.0 2.0 0.00 0.01 0.01 68 1007.4
20260508204604 63 81 3.0 3.0 0.01 0.01 0.01 68 1007.4
20260508203054 63 132 1.0 3.0 0.01 0.01 0.01 68 1007.8
20260508201608 62 99 2.0 3.0 0.01 0.01 0.01 69 1007.6
20260508194552 64 0 0.0 0.0 0.00 0.00 0.00 69 1009.0
20260508193055 64 0 0.0 0.0 0.00 0.00 0.00 65 1009.4
20260508191546 64 0 0.0 0.0 0.00 0.00 0.00 65 1009.2
20260508190052 65 33 0.0 2.0 0.00 0.00 0.00 65 1008.6
20260508184554 65 273 0.0 0.0 0.00 0.00 0.00 58 1008.7
20260508183054 64 283 0.0 0.0 0.00 0.00 0.00 58 1008.8
20260508181609 65 0 0.0 1.0 0.00 0.00 0.00 54 1008.5
20260508180107 64 38 0.0 1.0 0.00 0.00 0.00 54 1008.1
20260508174603 64 42 0.0 1.0 0.00 0.00 0.00 54 1008.5
20260508173054 65 277 0.0 0.0 0.00 0.00 0.00 61 1008.5
20260508171554 64 0 1.0 2.0 0.00 0.00 0.00 61 1008.1
20260508170056 64 90 1.0 2.0 0.00 0.00 0.00 61 1008.5
20260508164554 63 0 0.0 1.0 0.00 0.00 0.00 60 1008.5
20260508163048 62 0 0.0 1.0 0.00 0.00 0.00 60 1008.7
20260508161551 62 0 0.0 0.0 0.00 0.00 0.00 60 1008.3
20260508160049 62 0 0.0 1.0 0.00 0.00 0.00 58 1008.2
20260508154555 63 23 0.0 1.0 0.00 0.00 0.00 58 1008.3
20260508153047 62 242 4.0 6.0 0.00 0.00 0.00 58 1008.4
20260508151548 63 78 0.0 2.0 0.00 0.00 0.00 54 1007.1
20260508150050 63 281 0.0 4.0 0.00 0.00 0.00 54 1008.6
20260508144553 63 287 3.0 3.0 0.00 0.00 0.00 54 1008.4
20260508143048 63 0 1.0 3.0 0.00 0.00 0.00 53 1007.9
20260508141600 63 230 0.0 4.0 0.00 0.00 0.00 53 1007.8
20260508140055 62 260 2.0 4.0 0.00 0.00 0.00 53 1007.7
20260508134552 62 246 2.0 5.0 0.00 0.00 0.00 57 1007.8
20260508133052 61 286 2.0 2.0 0.00 0.00 0.00 57 1007.9
20260508131601 61 0 0.0 0.0 0.00 0.00 0.00 57 1007.8
20260508130050 61 0 0.0 0.0 0.00 0.00 0.00 53 1007.8
20260508124554 61 240 0.0 0.0 0.00 0.00 0.00 53 1007.7
20260508123054 61 0 0.0 0.0 0.00 0.00 0.00 53 1007.6
20260508121558 62 0 0.0 4.0 0.00 0.00 0.00 50 1007.5
20260508120101 61 290 3.0 4.0 0.00 0.00 0.00 50 1007.7
20260508114553 61 300 2.0 5.0 0.00 0.00 0.00 50 1007.5
20260508113108 61 0 0.0 0.0 0.00 0.00 0.00 50 1007.2
20260508111559 62 336 1.0 3.0 0.00 0.00 0.00 50 1007.0
20260508110100 62 245 1.0 1.0 0.00 0.00 0.00 50 1006.8
20260508104557 63 249 0.0 2.0 0.00 0.00 0.00 49 1006.7
20260508103117 63 233 2.0 2.0 0.00 0.00 0.00 49 1006.9
20260508101614 63 250 1.0 4.0 0.00 0.00 0.00 54 1006.8
20260508100054 62 259 3.0 7.0 0.00 0.00 0.00 54 1006.8
20260508094605 62 252 1.0 6.0 0.00 0.00 0.00 54 1006.7
20260508093051 62 269 1.0 7.0 0.00 0.00 0.00 49 1007.0
20260508091551 62 95 1.0 2.0 0.00 0.00 0.00 49 1007.2
20260508090059 62 229 1.0 1.0 0.00 0.00 0.00 49 1007.1
20260508084553 62 142 1.0 3.0 0.00 0.00 0.00 50 1007.3
20260508083111 61 244 0.0 0.0 0.00 0.00 0.00 50 1007.4
20260508081553 61 178 0.0 1.0 0.00 0.00 0.00 50 1007.5
20260508080055 61 184 1.0 1.0 0.00 0.00 0.00 46 1007.5
20260508074554 62 0 0.0 2.0 0.00 0.00 0.00 46 1007.7
20260508073057 63 0 0.0 3.0 0.00 0.00 0.00 46 1007.9
20260508071551 64 0 0.0 2.0 0.00 0.00 0.00 44 1008.0
20260508070053 64 212 4.0 4.0 0.00 0.00 0.00 44 1008.2
20260508064555 64 212 5.0 5.0 0.00 0.00 0.00 44 1008.5
20260508063054 64 174 2.0 2.0 0.00 0.00 0.00 42 1008.7
20260508061554 65 197 1.0 2.0 0.00 0.00 0.00 42 1008.8
20260508060054 65 241 1.0 2.0 0.00 0.00 0.00 42 1009.0
20260508054557 66 202 1.0 8.0 0.00 0.00 0.00 44 1009.1
20260508053054 66 150 2.0 4.0 0.00 0.00 0.00 44 1009.3
20260508051553 66 275 2.0 5.0 0.00 0.00 0.00 44 1009.2
20260508050057 66 229 3.0 6.0 0.00 0.00 0.00 47 1009.6
20260508044551 66 234 1.0 7.0 0.00 0.00 0.00 47 1009.4
20260508043100 63 259 3.0 8.0 0.00 0.00 0.00 47 1009.4
20260508041600 63 0 0.0 1.0 0.00 0.00 0.00 64 1009.4
20260508040056 61 0 0.0 1.0 0.00 0.00 0.00 64 1009.4
20260508034556 59 0 0.0 0.0 0.00 0.00 0.00 64 1009.3
20260508033052 59 161 0.0 0.0 0.00 0.00 0.00 66 1009.2
20260508031551 59 0 0.0 0.0 0.00 0.00 0.00 66 1009.2
20260508030055 59 0 0.0 0.0 0.00 0.00 0.00 60 1009.1
20260508024551 61 0 0.0 1.0 0.00 0.00 0.00 60 1008.8
20260508023051 61 166 0.0 0.0 0.00 0.00 0.00 60 1008.7
20260508021552 63 0 0.0 1.0 0.00 0.00 0.00 46 1008.5
20260508020044 67 0 0.0 0.0 0.00 0.00 0.00 46 1008.3
20260508014552 67 0 0.0 0.0 0.00 0.00 0.00 46 1008.1
20260508013051 69 0 0.0 1.0 0.00 0.00 0.00 38 1007.9
20260508011552 71 121 0.0 0.0 0.00 0.00 0.00 38 1007.7
20260508010048 75 0 0.0 0.0 0.00 0.00 0.00 38 1007.6
20260508004550 75 168 1.0 1.0 0.00 0.00 0.00 36 1007.6
20260508003059 75 192 0.0 0.0 0.00 0.00 0.00 36 1007.6
20260508001550 75 0 0.0 0.0 0.00 0.00 0.00 36 1007.5
20260508000052 76 0 0.0 0.0 0.00 0.00 0.00 30 1007.7
20260507234551 76 0 0.0 2.0 0.00 0.00 0.00 30 1007.7
20260507233053 76 269 0.0 4.0 0.00 0.00 0.00 30 1007.9
20260507231549 77 234 3.0 4.0 0.00 0.00 0.00 29 1008.0
20260507230052 77 279 2.0 3.0 0.00 0.00 0.00 29 1008.0
20260507224610 77 129 4.0 7.0 0.00 0.00 0.00 29 1008.3
20260507223054 76 253 4.0 4.0 0.00 0.00 0.00 30 1008.5
20260507221551 76 105 7.0 8.0 0.00 0.00 0.00 30 1008.6
20260507220050 76 286 2.0 11.0 0.00 0.00 0.00 30 1008.8